QPF
0.02 0.01 0.01 0.00 0.00 0.00 0.00 0.00 0.00 0.00 0.00 0.00 0.00 0.00 0.00 0.00 0.00 0.00 0.00 0.00 0.00 0.00 0.00 0.00 0.01 0.04 0.33 0.25 0.16 0.21 0.19 0.23 0.23 0.22 0.10 0.12 0.10 0.02 0.02 0.00 0.00 0.00 0.00 0.00
0.04 0.03 0.00 0.00 0.00 0.00 0.00 0.00 0.00 0.00 0.00 0.00 0.00 0.00 0.00 0.00 0.00 0.00 0.00 0.00 0.00 0.00 0.00 0.00 0.00 0.01 0.14 0.26 0.16 0.21 0.49 0.84 0.94 0.97 0.63 0.30 0.08 0.02 0.02 0.00 0.00 0.00 0.02 0.03
0.01 0.02 0.01 0.01 0.00 0.00 0.00 0.00 0.00 0.00 0.00 0.00 0.00 0.00 0.00 0.00 0.00 0.00 0.00 0.00 0.00 0.00 0.00 0.00 0.00 0.00 0.00 0.01 0.03 0.02 0.38 1.11 1.29 1.52 1.74 1.06 0.34 0.09 0.08 0.05 0.05 0.06 0.07 0.04
0.00 0.01 0.01 0.01 0.00 0.00 0.00 0.00 0.00 0.00 0.00 0.00 0.00 0.00 0.00 0.00 0.00 0.00 0.00 0.00 0.00 0.00 0.00 0.00 0.00 0.00 0.00 0.00 0.00 0.00 0.03 0.28 0.99 1.12 0.96 0.85 0.50 0.19 0.18 0.14 0.11 0.10 0.11 0.10
0.01 0.02 0.00 0.00 0.00 0.00 0.00 0.00 0.00 0.00 0.00 0.00 0.00 0.00 0.00 0.00 0.00 0.00 0.00 0.00 0.00 0.00 0.00 0.00 0.00 0.00 0.00 0.00 0.00 0.00 0.00 0.05 0.30 0.50 0.55 0.36 0.29 0.27 0.21 0.17 0.14 0.13 0.10 0.04
0.01 0.00 0.00 0.00 0.00 0.00 0.00 0.00 0.00 0.00 0.00 0.00 0.00 0.00 0.00 0.00 0.00 0.00 0.00 0.00 0.00 0.00 0.00 0.00 0.00 0.00 0.00 0.00 0.00 0.00 0.00 0.00 0.19 0.41 0.44 0.46 0.40 0.31 0.23 0.15 0.11 0.08 0.03 0.00
0.00 0.00 0.00 0.00 0.00 0.00 0.00 0.00 0.00 0.00 0.00 0.00 0.00 0.00 0.00 0.00 0.00 0.00 0.00 0.00 0.00 0.00 0.00 0.00 0.00 0.00 0.00 0.00 0.00 0.00 0.00 0.00 0.16 0.55 0.46 0.42 0.44 0.38 0.24 0.16 0.07 0.02 0.00 0.00
0.00 0.00 0.00 0.00 0.00 0.00 0.00 0.00 0.00 0.00 0.00 0.00 0.00 0.00 0.00 0.00 0.00 0.00 0.00 0.00 0.00 0.00 0.00 0.00 0.00 0.00 0.00 0.00 0.00 0.00 0.00 0.01 0.21 0.85 0.48 0.60 0.44 0.54 0.24 0.14 0.05 0.01 0.00 0.00
0.00 0.00 0.00 0.00 0.00 0.00 0.00 0.00 0.00 0.00 0.00 0.00 0.00 0.00 0.00 0.00 0.00 0.00 0.00 0.00 0.00 0.00 0.00 0.00 0.00 0.00 0.00 0.00 0.00 0.00 0.00 0.00 0.03 0.13 0.16 0.39 0.33 0.25 0.15 0.07 0.01 0.00 0.00 0.00
0.00 0.00 0.00 0.00 0.00 0.00 0.00 0.00 0.00 0.00 0.00 0.00 0.00 0.00 0.00 0.00 0.00 0.00 0.00 0.00 0.00 0.00 0.00 0.00 0.00 0.00 0.00 0.00 0.01 0.02 0.01 0.01 0.05 0.10 0.09 0.15 0.14 0.10 0.05 0.01 0.00 0.00 0.00 0.00
0.00 0.00 0.00 0.00 0.00 0.00 0.00 0.00 0.00 0.00 0.00 0.00 0.00 0.00 0.00 0.00 0.00 0.00 0.00 0.00 0.00 0.00 0.00 0.00 0.00 0.00 0.03 0.06 0.02 0.04 0.10 0.09 0.14 0.21 0.19 0.09 0.04 0.01 0.00 0.00 0.00 0.00 0.00 0.00
0.03 0.01 0.00 0.00 0.00 0.00 0.00 0.00 0.00 0.00 0.00 0.00 0.00 0.00 0.00 0.00 0.00 0.00 0.00 0.00 0.00 0.00 0.00 0.00 0.00 0.00 0.05 0.08 0.14 0.18 0.16 0.14 0.15 0.13 0.08 0.01 0.01 0.00 0.00 0.00 0.00 0.00 0.00 0.00
0.03 0.02 0.00 0.00 0.00 0.00 0.00 0.00 0.00 0.00 0.00 0.00 0.00 0.00 0.00 0.00 0.00 0.00 0.00 0.00 0.00 0.00 0.00 0.00 0.00 0.00 0.01 0.10 0.15 0.14 0.15 0.10 0.10 0.05 0.04 0.02 0.01 0.00 0.00 0.00 0.00 0.00 0.00 0.00
0.02 0.02 0.02 0.01 0.00 0.00 0.00 0.00 0.00 0.00 0.00 0.00 0.00 0.00 0.01 0.00 0.00 0.00 0.00 0.00 0.00 0.01 0.01 0.00 0.01 0.06 0.04 0.09 0.17 0.20 0.16 0.11 0.08 0.06 0.03 0.02 0.00 0.00 0.00 0.00 0.00 0.00 0.00 0.00
0.01 0.03 0.04 0.01 0.01 0.00 0.00 0.00 0.00 0.00 0.00 0.00 0.00 0.01 0.03 0.02 0.00 0.00 0.00 0.00 0.00 0.01 0.00 0.00 0.01 0.10 0.23 0.16 0.14 0.19 0.15 0.11 0.08 0.03 0.01 0.00 0.00 0.00 0.00 0.00 0.00 0.00 0.00 0.00
0.05 0.03 0.02 0.02 0.01 0.00 0.00 0.00 0.00 0.00 0.00 0.00 0.01 0.03 0.05 0.04 0.04 0.03 0.02 0.02 0.01 0.02 0.01 0.00 0.02 0.13 0.22 0.27 0.30 0.21 0.10 0.05 0.01 0.00 0.00 0.00 0.00 0.00 0.00 0.00 0.00 0.00 0.00 0.00
0.03 0.02 0.02 0.00 0.01 0.00 0.00 0.00 0.00 0.00 0.00 0.00 0.00 0.01 0.05 0.09 0.10 0.19 0.13 0.03 0.01 0.00 0.00 0.00 0.02 0.11 0.19 0.19 0.16 0.11 0.08 0.02 0.01 0.00 0.00 0.00 0.00 0.00 0.00 0.00 0.00 0.00 0.00 0.00
0.02 0.00 0.00 0.00 0.00 0.00 0.00 0.00 0.00 0.00 0.00 0.00 0.00 0.00 0.04 0.30 0.13 0.23 0.14 0.13 0.07 0.02 0.00 0.01 0.04 0.04 0.04 0.08 0.05 0.07 0.02 0.01 0.00 0.00 0.00 0.00 0.00 0.00 0.00 0.00 0.00 0.00 0.00 0.00
0.01 0.01 0.03 0.00 0.00 0.00 0.00 0.00 0.00 0.00 0.00 0.00 0.00 0.00 0.02 0.19 0.21 0.27 0.04 0.05 0.05 0.02 0.01 0.01 0.02 0.02 0.02 0.02 0.02 0.01 0.01 0.01 0.00 0.00 0.00 0.00 0.00 0.00 0.00 0.00 0.00 0.00 0.00 0.00
0.05 0.03 0.01 0.00 0.01 0.01 0.01 0.00 0.00 0.00 0.00 0.00 0.00 0.01 0.03 0.03 0.04 0.03 0.01 0.01 0.01 0.01 0.01 0.01 0.01 0.01 0.00 0.00 0.00 0.00 0.00 0.00 0.00 0.00 0.00 0.00 0.00 0.00 0.00 0.00 0.00 0.00 0.00 0.00
0.02 0.02 0.01 0.01 0.00 0.01 0.02 0.00 0.01 0.00 0.00 0.00 0.01 0.00 0.02 0.02 0.01 0.00 0.00 0.00 0.00 0.00 0.00 0.00 0.00 0.00 0.00 0.00 0.00 0.01 0.00 0.00 0.00 0.00 0.00 0.00 0.00 0.00 0.00 0.00 0.00 0.00 0.00 0.00
0.05 0.03 0.01 0.00 0.00 0.01 0.00 0.00 0.00 0.00 0.00 0.00 0.00 0.00 0.00 0.01 0.00 0.00 0.00 0.00 0.00 0.00 0.00 0.00 0.00 0.00 0.00 0.01 0.02 0.02 0.00 0.00 0.01 0.00 0.00 0.00 0.00 0.00 0.00 0.00 0.00 0.00 0.00 0.00
0.06 0.06 0.03 0.01 0.02 0.03 0.02 0.00 0.00 0.00 0.00 0.00 0.00 0.00 0.00 0.00 0.00 0.00 0.00 0.00 0.00 0.00 0.00 0.00 0.00 0.00 0.00 0.00 0.03 0.16 0.11 0.02 0.00 0.00 0.00 0.00 0.00 0.00 0.00 0.00 0.00 0.00 0.00 0.00
0.00 0.02 0.02 0.02 0.03 0.03 0.04 0.03 0.01 0.00 0.00 0.00 0.00 0.00 0.00 0.00 0.00 0.00 0.00 0.00 0.00 0.00 0.00 0.00 0.00 0.00 0.00 0.00 0.00 0.02 0.06 0.02 0.00 0.00 0.00 0.00 0.00 0.00 0.00 0.00 0.00 0.00 0.00 0.00
0.00 0.00 0.01 0.01 0.01 0.01 0.05 0.05 0.03 0.03 0.02 0.03 0.01 0.00 0.00 0.01 0.00 0.00 0.00 0.00 0.00 0.00 0.00 0.00 0.00 0.00 0.00 0.00 0.00 0.00 0.00 0.00 0.00 0.00 0.00 0.00 0.00 0.00 0.00 0.00 0.00 0.00 0.00 0.00
0.02 0.01 0.00 0.02 0.02 0.00 0.01 0.01 0.05 0.01 0.00 0.00 0.00 0.00 0.00 0.01 0.00 0.00 0.00 0.00 0.00 0.00 0.00 0.00 0.00 0.00 0.00 0.00 0.00 0.00 0.00 0.00 0.00 0.00 0.00 0.00 0.00 0.00 0.00 0.00 0.00 0.00 0.00 0.00
MSLP
1008.06 1008.25 1007.85 1007.83 1008.09 1007.46 1007.12 1006.49 1005.81 1004.89 1003.93 1003.92 1004.20 1004.29 1003.66 1003.17 1003.62 1003.95 1004.15 1004.72 1005.27 1005.96 1006.67 1007.11 1007.30 1007.11 1007.28 1008.02 1008.96 1009.57 1010.83 1011.79 1012.37 1012.80 1013.01 1012.32 1012.13 1012.01 1011.71 1011.49 1011.35 1011.89 1012.57 1013.02
1008.55 1007.93 1007.63 1007.52 1007.53 1007.33 1006.98 1006.43 1005.55 1004.64 1003.93 1003.84 1003.97 1003.89 1003.45 1003.19 1003.52 1003.90 1004.32 1004.97 1005.58 1006.12 1006.65 1007.12 1007.49 1007.20 1006.85 1007.31 1008.14 1009.46 1009.73 1011.54 1012.52 1012.35 1013.63 1012.58 1012.57 1011.97 1012.01 1011.00 1011.78 1011.84 1012.77 1013.82
1008.73 1008.08 1007.41 1007.02 1006.79 1006.79 1006.38 1006.09 1005.38 1004.77 1004.16 1003.83 1003.86 1004.05 1003.69 1003.85 1003.97 1004.33 1004.51 1004.57 1005.36 1005.61 1006.46 1007.17 1007.34 1007.36 1007.32 1007.04 1006.37 1006.82 1008.25 1009.60 1012.11 1011.00 1011.45 1014.49 1012.76 1012.75 1012.53 1012.41 1012.62 1012.98 1013.49 1013.92
1008.51 1007.43 1006.85 1006.22 1005.95 1006.07 1005.90 1005.47 1005.27 1004.89 1004.63 1004.66 1004.17 1004.76 1004.06 1004.05 1004.63 1004.98 1005.11 1005.13 1005.35 1005.99 1006.43 1006.73 1006.91 1007.07 1006.76 1006.79 1007.12 1006.26 1007.77 1008.62 1010.64 1011.07 1011.67 1013.19 1012.31 1013.47 1013.18 1013.59 1013.53 1013.95 1014.14 1014.86
1007.35 1006.45 1006.03 1005.83 1005.45 1005.40 1005.28 1004.73 1004.91 1005.06 1005.11 1005.07 1005.01 1005.18 1004.31 1004.18 1004.80 1004.97 1005.10 1005.19 1005.15 1005.56 1006.09 1006.15 1006.03 1006.13 1006.26 1006.67 1007.20 1007.75 1008.85 1009.18 1009.50 1010.04 1010.36 1010.36 1012.23 1013.02 1013.90 1014.59 1014.52 1013.84 1014.55 1015.68
1007.01 1006.24 1006.00 1005.19 1004.76 1004.74 1004.70 1004.75 1004.97 1005.39 1005.77 1006.02 1005.18 1004.95 1004.63 1003.85 1003.02 1004.05 1004.72 1004.83 1005.03 1005.27 1005.65 1006.05 1006.31 1006.53 1006.40 1006.81 1007.49 1007.75 1008.29 1008.62 1009.16 1009.72 1010.25 1010.88 1011.17 1012.10 1013.48 1014.59 1014.56 1014.35 1015.42 1015.89
1006.45 1005.74 1005.05 1004.59 1004.44 1004.27 1004.45 1004.78 1005.75 1006.61 1006.72 1006.30 1005.31 1005.17 1003.84 1002.84 1002.59 1002.42 1003.62 1004.39 1004.72 1005.15 1005.54 1005.96 1006.33 1006.71 1006.89 1006.90 1007.47 1008.19 1008.39 1008.37 1007.97 1008.59 1009.27 1010.08 1011.01 1012.23 1013.02 1014.57 1014.41 1014.99 1015.60 1016.34
1006.32 1005.26 1004.33 1003.93 1004.01 1004.00 1004.45 1004.95 1005.61 1006.31 1006.82 1006.54 1005.49 1004.67 1003.15 1002.11 1001.97 1002.13 1002.64 1003.21 1004.25 1005.09 1005.51 1005.92 1006.26 1006.54 1006.87 1007.65 1007.93 1007.90 1008.00 1007.74 1007.93 1008.24 1009.61 1010.18 1011.53 1013.05 1013.45 1014.31 1014.79 1015.11 1015.92 1016.69
1005.80 1004.52 1003.37 1003.07 1003.26 1003.81 1004.53 1005.10 1005.46 1006.19 1006.81 1006.55 1005.80 1004.06 1002.95 1002.40 1002.38 1002.59 1002.95 1003.92 1004.60 1004.92 1005.60 1005.87 1006.16 1006.36 1006.93 1007.40 1007.37 1007.55 1007.77 1008.37 1009.10 1009.87 1010.27 1010.02 1009.64 1012.97 1013.49 1014.67 1015.10 1015.61 1016.14 1016.19
1005.15 1004.33 1003.09 1003.23 1003.26 1003.46 1003.85 1004.61 1005.66 1006.42 1007.33 1007.42 1006.18 1005.05 1003.72 1002.96 1002.95 1003.39 1003.69 1003.85 1004.20 1004.70 1005.22 1005.59 1006.03 1006.62 1006.78 1007.31 1007.44 1007.99 1008.28 1009.09 1009.34 1010.17 1011.13 1011.34 1011.97 1013.09 1014.20 1015.12 1015.60 1015.97 1016.10 1016.71
1004.77 1004.73 1003.82 1003.35 1003.30 1003.29 1004.05 1004.74 1005.68 1006.42 1007.53 1007.59 1007.36 1005.29 1004.17 1003.79 1002.89 1002.89 1002.97 1002.73 1003.02 1003.55 1004.14 1004.83 1005.85 1006.50 1007.05 1007.43 1007.65 1008.11 1008.58 1009.41 1010.23 1010.80 1011.33 1012.25 1012.70 1013.45 1014.65 1015.66 1015.99 1016.08 1016.69 1017.27
1004.33 1004.60 1004.16 1003.36 1002.52 1002.56 1003.27 1004.25 1005.22 1006.49 1007.80 1007.74 1007.52 1005.37 1003.56 1003.38 1002.96 1002.35 1001.78 1002.05 1002.33 1002.63 1003.39 1004.42 1005.98 1006.19 1006.52 1007.24 1007.89 1008.85 1009.41 1009.89 1010.45 1010.98 1011.68 1012.29 1012.79 1013.87 1015.25 1015.91 1016.55 1016.82 1017.09 1017.41
1004.46 1004.30 1004.40 1003.60 1003.13 1002.72 1003.04 1003.71 1004.47 1005.60 1006.71 1007.07 1006.99 1005.27 1003.36 1003.00 1002.94 1002.35 1001.54 1001.77 1002.19 1003.10 1003.80 1004.46 1005.68 1006.26 1006.66 1007.51 1008.21 1009.23 1009.63 1010.40 1011.11 1011.94 1012.55 1013.06 1013.90 1014.59 1015.75 1016.55 1016.93 1017.21 1017.24 1017.35
1004.35 1005.05 1004.51 1003.74 1003.10 1002.94 1003.25 1003.49 1004.09 1005.10 1006.11 1006.41 1006.17 1005.33 1004.23 1004.03 1003.65 1002.93 1001.75 1002.12 1003.05 1003.69 1004.10 1004.81 1005.91 1006.85 1007.39 1007.70 1008.25 1009.41 1010.47 1011.19 1012.00 1012.81 1013.43 1014.02 1014.84 1015.52 1016.40 1016.99 1017.11 1017.32 1017.42 1017.42
1005.21 1005.17 1005.08 1003.47 1003.00 1002.49 1002.76 1002.79 1003.57 1004.23 1004.75 1005.39 1005.52 1005.95 1005.74 1005.31 1004.99 1004.49 1004.09 1002.86 1003.81 1004.85 1005.24 1005.84 1006.67 1007.33 1007.77 1009.13 1008.83 1009.87 1010.91 1011.72 1012.45 1013.05 1013.77 1014.68 1015.56 1016.26 1016.78 1017.33 1017.66 1017.89 1017.82 1017.78
1006.03 1005.49 1004.68 1003.89 1003.01 1002.65 1002.92 1002.68 1003.02 1003.91 1004.44 1005.05 1005.69 1005.98 1005.71 1005.70 1005.51 1005.80 1005.80 1004.91 1004.94 1006.11 1006.29 1007.01 1007.54 1008.42 1008.93 1008.63 1010.25 1010.86 1011.55 1012.29 1012.84 1013.79 1014.92 1015.99 1016.37 1017.15 1017.67 1017.88 1017.97 1018.35 1018.34 1018.49
1007.09 1006.22 1005.63 1004.49 1003.21 1002.54 1002.59 1001.89 1002.35 1002.94 1003.20 1004.01 1004.96 1005.02 1006.01 1006.65 1006.97 1007.81 1007.64 1007.39 1006.61 1006.87 1007.66 1008.48 1009.27 1009.87 1010.10 1010.81 1011.04 1011.88 1012.69 1012.74 1013.64 1014.22 1015.54 1016.32 1017.09 1017.57 1018.03 1018.07 1018.61 1019.27 1019.22 1019.59
1007.22 1006.49 1006.15 1005.35 1003.78 1002.76 1001.61 1001.23 1001.08 1001.77 1002.53 1003.51 1004.43 1005.53 1006.21 1007.37 1007.76 1008.48 1009.69 1009.31 1008.68 1008.89 1009.63 1010.31 1010.81 1011.28 1011.93 1012.08 1012.62 1011.73 1014.25 1014.00 1014.89 1015.52 1016.54 1017.10 1016.96 1018.03 1018.80 1018.97 1019.37 1019.67 1019.87 1020.02
1007.07 1006.60 1006.82 1006.37 1004.90 1003.17 1001.88 1001.53 1001.50 1001.68 1003.42 1003.82 1004.71 1006.14 1006.79 1006.96 1007.29 1008.79 1010.99 1010.99 1010.93 1010.73 1011.27 1011.98 1012.21 1012.61 1013.14 1013.45 1013.74 1014.17 1015.26 1015.74 1016.13 1016.87 1017.59 1018.31 1018.07 1018.36 1019.07 1019.52 1019.72 1020.13 1019.99 1020.43
1006.66 1006.91 1006.88 1006.37 1005.43 1004.04 1002.94 1001.95 1001.77 1002.07 1003.78 1004.32 1005.02 1005.75 1006.56 1007.29 1008.32 1010.03 1011.71 1012.45 1012.54 1012.77 1012.64 1013.07 1013.45 1013.90 1014.25 1015.03 1015.11 1015.64 1016.43 1016.91 1017.48 1018.22 1018.69 1018.73 1018.92 1019.13 1019.62 1020.59 1020.87 1020.92 1021.15 1021.56
1006.79 1006.87 1006.80 1006.35 1005.66 1004.45 1002.93 1002.32 1001.81 1002.29 1002.63 1003.70 1004.30 1005.14 1006.22 1008.08 1008.85 1010.91 1012.17 1013.11 1013.18 1013.59 1014.19 1014.40 1014.98 1015.14 1016.05 1016.32 1016.44 1017.04 1017.68 1018.28 1018.91 1019.13 1019.37 1019.62 1019.97 1020.48 1021.09 1021.48 1021.60 1021.94 1022.13 1022.45
1006.83 1006.85 1006.79 1006.50 1005.95 1005.01 1003.60 1002.83 1002.72 1002.41 1001.90 1002.63 1004.46 1005.44 1006.60 1008.37 1010.12 1011.61 1012.74 1013.73 1013.95 1014.43 1015.20 1015.97 1016.11 1016.74 1017.46 1017.45 1017.28 1018.55 1018.93 1019.75 1020.17 1020.38 1020.33 1020.39 1021.22 1021.65 1021.89 1022.10 1022.37 1022.69 1022.73 1022.86
1006.97 1006.83 1006.57 1006.33 1005.87 1004.84 1004.57 1004.45 1003.31 1002.25 1002.79 1003.49 1004.63 1006.25 1007.71 1009.47 1011.14 1011.98 1013.03 1014.13 1014.94 1015.61 1016.44 1017.11 1017.49 1018.20 1018.83 1019.03 1018.99 1019.20 1020.10 1020.71 1020.72 1021.23 1021.52 1021.58 1022.10 1022.47 1022.43 1022.53 1023.11 1023.33 1023.28 1023.61
1007.25 1006.62 1006.56 1006.04 1005.91 1005.31 1005.09 1004.19 1003.76 1002.75 1003.21 1003.79 1004.97 1006.28 1007.62 1009.43 1011.22 1012.41 1013.37 1014.72 1015.56 1016.49 1017.11 1018.13 1018.69 1019.34 1019.66 1019.84 1020.03 1020.55 1020.79 1020.75 1021.28 1022.26 1022.51 1022.50 1022.85 1022.95 1022.73 1023.06 1023.43 1023.51 1023.76 1023.77
1008.25 1007.29 1006.39 1005.87 1005.63 1005.06 1004.87 1004.90 1004.43 1004.17 1004.17 1005.06 1005.98 1006.86 1008.17 1009.71 1011.68 1012.85 1014.15 1015.49 1016.51 1017.17 1018.01 1019.07 1019.55 1020.03 1020.55 1020.71 1021.04 1021.23 1021.49 1021.85 1022.68 1023.06 1023.07 1023.27 1023.56 1023.57 1023.47 1023.69 1023.80 1023.92 1023.96 1023.83
1008.06 1007.85 1007.41 1006.62 1006.29 1006.27 1005.85 1005.37 1005.07 1005.07 1005.75 1006.08 1006.48 1008.40 1009.70 1010.36 1011.77 1013.20 1014.77 1015.94 1016.97 1018.00 1019.18 1019.98 1020.33 1020.57 1020.97 1021.35 1021.68 1022.00 1022.37 1022.58 1022.94 1023.33 1023.53 1023.79 1023.94 1023.85 1023.85 1024.21 1024.27 1024.03 1023.98 1023.92
Thickness
5527 5528 5545 5569 5577 5594 5601 5613 5629 5646 5673 5679 5680 5687 5706 5717 5722 5726 5734 5740 5742 5748 5753 5759 5764 5772 5775 5772 5767 5767 5762 5749 5743 5742 5741 5742 5747 5750 5751 5755 5757 5754 5752 5746
5519 5530 5552 5567 5576 5586 5594 5604 5621 5646 5663 5671 5673 5679 5699 5710 5719 5724 5729 5731 5734 5738 5746 5751 5754 5762 5768 5768 5766 5761 5759 5742 5735 5736 5731 5716 5730 5737 5739 5752 5747 5750 5743 5731
5514 5531 5551 5562 5574 5581 5591 5601 5618 5632 5652 5668 5672 5664 5688 5698 5708 5717 5726 5736 5736 5740 5739 5741 5746 5750 5755 5762 5774 5770 5762 5751 5729 5741 5731 5693 5722 5720 5724 5732 5732 5730 5726 5722
5516 5544 5553 5563 5576 5585 5583 5608 5618 5630 5633 5627 5661 5635 5674 5690 5690 5704 5712 5722 5731 5733 5736 5741 5743 5747 5752 5757 5760 5769 5760 5754 5738 5731 5727 5701 5707 5703 5711 5713 5716 5714 5713 5711
5535 5547 5557 5562 5577 5589 5591 5614 5617 5624 5623 5632 5639 5637 5657 5679 5684 5704 5717 5719 5730 5734 5734 5739 5745 5749 5752 5753 5750 5749 5741 5742 5742 5733 5729 5728 5709 5707 5701 5697 5701 5710 5709 5696
5539 5553 5558 5569 5585 5594 5605 5609 5612 5609 5609 5603 5635 5645 5649 5677 5708 5708 5716 5723 5728 5733 5736 5738 5736 5738 5744 5742 5744 5746 5740 5738 5735 5734 5726 5715 5713 5702 5696 5689 5694 5701 5693 5691
5549 5558 5570 5581 5582 5596 5600 5594 5577 5583 5589 5602 5633 5637 5662 5699 5708 5722 5718 5719 5723 5727 5727 5728 5727 5726 5731 5734 5735 5729 5730 5735 5742 5738 5729 5721 5708 5695 5691 5683 5689 5690 5689 5684
5545 5556 5573 5587 5587 5590 5596 5596 5576 5588 5587 5606 5635 5636 5672 5698 5713 5720 5725 5727 5721 5718 5719 5721 5721 5722 5719 5715 5718 5724 5724 5732 5738 5740 5729 5720 5709 5688 5687 5684 5682 5683 5679 5673
5554 5566 5590 5595 5600 5601 5591 5592 5607 5599 5604 5608 5622 5657 5683 5693 5703 5708 5712 5712 5712 5713 5712 5713 5717 5720 5715 5714 5720 5723 5725 5722 5721 5718 5716 5720 5724 5689 5687 5678 5676 5675 5671 5674
5571 5566 5593 5593 5600 5602 5601 5605 5597 5591 5594 5604 5618 5636 5655 5682 5688 5689 5694 5703 5709 5710 5709 5711 5712 5707 5711 5708 5714 5714 5714 5708 5708 5702 5698 5697 5693 5687 5678 5669 5666 5664 5665 5659
5575 5571 5583 5591 5589 5591 5593 5592 5594 5595 5593 5592 5592 5624 5659 5664 5681 5685 5693 5707 5712 5713 5712 5711 5705 5701 5702 5701 5706 5707 5707 5701 5694 5686 5685 5681 5679 5675 5665 5656 5655 5656 5650 5646
5584 5572 5571 5588 5606 5611 5603 5597 5596 5582 5590 5592 5595 5614 5661 5664 5671 5685 5704 5708 5711 5716 5712 5708 5692 5697 5698 5701 5697 5691 5691 5692 5689 5685 5677 5675 5672 5666 5651 5649 5644 5642 5639 5639
5581 5580 5569 5583 5593 5605 5602 5608 5605 5597 5590 5593 5588 5611 5661 5667 5669 5677 5696 5698 5703 5700 5695 5696 5690 5687 5695 5693 5689 5686 5685 5680 5675 5669 5665 5661 5656 5653 5645 5638 5636 5635 5634 5632
5589 5571 5575 5573 5588 5596 5595 5606 5607 5599 5583 5596 5604 5621 5637 5651 5658 5667 5680 5685 5686 5688 5689 5692 5685 5680 5683 5684 5684 5679 5673 5667 5661 5654 5649 5646 5642 5639 5634 5630 5632 5631 5629 5628
5576 5574 5576 5601 5598 5606 5606 5614 5608 5610 5612 5607 5614 5613 5626 5634 5642 5653 5661 5682 5682 5677 5680 5678 5676 5677 5674 5667 5671 5667 5661 5657 5651 5646 5642 5637 5632 5627 5624 5621 5619 5617 5615 5617
5571 5578 5584 5590 5598 5605 5600 5614 5613 5613 5608 5607 5605 5612 5629 5634 5642 5643 5647 5666 5671 5665 5667 5665 5664 5662 5659 5662 5656 5655 5652 5646 5641 5634 5624 5618 5617 5612 5609 5607 5606 5604 5604 5602
5562 5570 5566 5583 5596 5600 5593 5609 5613 5612 5622 5618 5609 5628 5624 5621 5624 5620 5633 5642 5656 5660 5657 5653 5649 5647 5647 5642 5642 5637 5630 5627 5626 5623 5615 5609 5606 5603 5600 5600 5596 5589 5589 5585
5562 5570 5566 5569 5586 5588 5612 5624 5630 5626 5628 5622 5624 5622 5623 5612 5611 5610 5608 5621 5632 5634 5630 5628 5629 5627 5625 5625 5621 5629 5605 5612 5607 5604 5599 5597 5601 5593 5588 5586 5583 5582 5578 5574
5561 5570 5563 5561 5571 5599 5615 5620 5623 5624 5615 5623 5624 5617 5615 5614 5617 5593 5594 5601 5606 5612 5613 5610 5612 5612 5611 5609 5607 5603 5594 5592 5589 5587 5582 5578 5583 5584 5580 5577 5577 5571 5570 5565
5564 5564 5563 5562 5572 5582 5601 5620 5628 5627 5603 5619 5619 5617 5613 5613 5616 5604 5584 5584 5589 5590 5595 5596 5596 5595 5596 5592 5592 5586 5580 5577 5573 5567 5567 5570 5571 5571 5568 5560 5557 5554 5552 5546
5560 5558 5560 5564 5568 5582 5607 5618 5629 5613 5620 5624 5626 5623 5615 5606 5607 5585 5579 5576 5583 5581 5577 5581 5578 5579 5575 5574 5573 5568 5564 5560 5556 5556 5556 5556 5554 5553 5548 5545 5543 5539 5535 5529
5558 5555 5558 5562 5566 5578 5603 5615 5618 5626 5636 5637 5627 5625 5618 5599 5587 5578 5574 5571 5573 5572 5568 5566 5566 5562 5556 5557 5560 5549 5548 5543 5541 5540 5542 5543 5537 5537 5535 5532 5529 5524 5522 5518
5557 5563 5565 5569 5573 5586 5590 5596 5611 5629 5632 5632 5624 5612 5605 5591 5581 5577 5574 5568 5562 5560 5555 5553 5551 5546 5543 5543 5544 5541 5533 5532 5533 5530 5528 5529 5526 5524 5524 5522 5516 5512 5511 5506
5557 5565 5564 5572 5574 5583 5586 5598 5608 5624 5627 5626 5621 5613 5605 5592 5581 5574 5570 5560 5556 5552 5549 5544 5540 5535 5532 5533 5533 5527 5524 5528 5525 5520 5518 5519 5516 5515 5516 5513 5507 5506 5501 5497
5542 5554 5567 5573 5579 5588 5590 5592 5602 5608 5615 5612 5611 5609 5598 5590 5577 5570 5562 5553 5547 5545 5540 5533 5531 5528 5525 5525 5522 5521 5520 5518 5512 5510 5510 5508 5505 5504 5505 5501 5497 5494 5490 5488
5545 5550 5554 5565 5572 5574 5579 5589 5596 5597 5598 5601 5603 5591 5585 5583 5573 5566 5555 5548 5543 5536 5528 5522 5521 5521 5521 5518 5516 5513 5509 5507 5505 5501 5500 5498 5496 5497 5496 5490 5485 5485 5482 5480